QFA1211 NZAA-YSSY

Flight info

Callsign QFA1211
Flight time 2h 46m
Altitude 38000
Route VELMO DCT 38S163E DCT PLUGA DCT RIKNI N774 MARLN
Aircraft A35K/H-SDE2E3GHIJ3J4J5LM1ORWXY/LB1D1

Departure

Time 2026-04-21 03:18
Airport Auckland International Airport (NZAA)

Arrival

Time 2026-04-21 06:05
Airport Sydney Kingsford Smith International Airport (YSSY)
Time Latitude Longitude Altitude Speed Heading
2026-04-21 02:43 -37.00708 174.78306 31 ft 0 kts 296°
2026-04-21 03:08 -37.00709 174.78307 31 ft 2 kts 296°
2026-04-21 03:08 -37.00717 174.78329 31 ft 3 kts 296°
2026-04-21 03:08 -37.00724 174.78348 31 ft 2 kts 296°
2026-04-21 03:08 -37.00732 174.78371 31 ft 3 kts 280°
2026-04-21 03:09 -37.00733 174.78393 30 ft 3 kts 236°
2026-04-21 03:09 -37.00720 174.78406 28 ft 3 kts 206°
2026-04-21 03:09 -37.00702 174.78417 30 ft 3 kts 206°
2026-04-21 03:09 -37.00685 174.78428 30 ft 1 kts 206°
2026-04-21 03:12 -37.00687 174.78426 31 ft 2 kts 207°
2026-04-21 03:13 -37.00721 174.78404 28 ft 8 kts 206°
2026-04-21 03:13 -37.00788 174.78380 31 ft 12 kts 186°
2026-04-21 03:13 -37.00888 174.78367 31 ft 17 kts 186°
2026-04-21 03:13 -37.00937 174.78362 31 ft 2 kts 183°
2026-04-21 03:14 -37.00972 174.78353 31 ft 8 kts 204°
2026-04-21 03:14 -37.01000 174.78295 31 ft 11 kts 247°
2026-04-21 03:14 -37.01034 174.78175 31 ft 18 kts 251°
2026-04-21 03:14 -37.01080 174.78009 31 ft 17 kts 251°
2026-04-21 03:15 -37.01122 174.77859 31 ft 19 kts 251°
2026-04-21 03:15 -37.01160 174.77719 31 ft 17 kts 251°
2026-04-21 03:15 -37.01228 174.77645 31 ft 13 kts 185°
2026-04-21 03:15 -37.01300 174.77586 32 ft 13 kts 248°
2026-04-21 03:16 -37.01335 174.77458 32 ft 18 kts 251°
2026-04-21 03:16 -37.01380 174.77294 32 ft 22 kts 251°
2026-04-21 03:16 -37.01407 174.77195 32 ft 2 kts 251°
2026-04-21 03:16 -37.01420 174.77150 32 ft 9 kts 246°
2026-04-21 03:17 -37.01483 174.77102 32 ft 13 kts 191°
2026-04-21 03:17 -37.01584 174.77085 32 ft 14 kts 168°
2026-04-21 03:17 -37.01606 174.77173 32 ft 12 kts 73°
2026-04-21 03:17 -37.01565 174.77320 32 ft 39 kts 71°
2026-04-21 03:18 -37.01390 174.77956 32 ft 113 kts 71°
2026-04-21 03:18 -37.01061 174.79135 67 ft 169 kts 72°
2026-04-21 03:18 -37.00637 174.80518 795 ft 172 kts 72°
2026-04-21 03:18 -37.00187 174.81951 1507 ft 183 kts 70°
2026-04-21 03:19 -36.99742 174.83510 1926 ft 200 kts 75°
2026-04-21 03:19 -36.99303 174.85253 2238 ft 220 kts 74°
2026-04-21 03:19 -36.98815 174.87136 2684 ft 232 kts 73°
2026-04-21 03:19 -36.98285 174.89106 3163 ft 248 kts 73°
2026-04-21 03:20 -36.97713 174.91208 3660 ft 260 kts 72°
2026-04-21 03:20 -36.97119 174.93357 4387 ft 264 kts 72°
2026-04-21 03:20 -36.96509 174.95556 5086 ft 270 kts 72°
2026-04-21 03:20 -36.95896 174.97763 5812 ft 272 kts 71°
2026-04-21 03:21 -36.95414 175.00073 6507 ft 275 kts 85°
2026-04-21 03:21 -36.95634 175.02426 7182 ft 276 kts 111°
2026-04-21 03:21 -36.96669 175.04425 7874 ft 276 kts 138°
2026-04-21 03:21 -36.98287 175.05696 8521 ft 279 kts 160°
2026-04-21 03:22 -37.00130 175.06501 9229 ft 282 kts 163°
2026-04-21 03:22 -37.02016 175.07254 9933 ft 286 kts 165°
2026-04-21 03:22 -37.03988 175.07556 10558 ft 287 kts 185°
2026-04-21 03:22 -37.05902 175.06892 11173 ft 289 kts 208°
2026-04-21 03:23 -37.07491 175.05296 11503 ft 303 kts 232°
2026-04-21 03:23 -37.08439 175.02874 11789 ft 319 kts 257°
2026-04-21 03:23 -37.08798 175.00082 12100 ft 333 kts 258°
2026-04-21 03:23 -37.09442 174.97243 12515 ft 343 kts 251°
2026-04-21 03:24 -37.10215 174.94398 13053 ft 348 kts 251°
2026-04-21 03:24 -37.11013 174.91509 13617 ft 352 kts 251°
2026-04-21 03:24 -37.11818 174.88594 14155 ft 355 kts 251°
2026-04-21 03:24 -37.12628 174.85663 14655 ft 359 kts 250°
2026-04-21 03:25 -37.13449 174.82691 15228 ft 361 kts 250°
2026-04-21 03:25 -37.14293 174.79716 15770 ft 364 kts 248°
2026-04-21 03:25 -37.15297 174.76783 16303 ft 367 kts 246°
2026-04-21 03:25 -37.16348 174.73855 16859 ft 370 kts 246°
2026-04-21 03:26 -37.17398 174.70894 17362 ft 373 kts 246°
2026-04-21 03:26 -37.18444 174.67905 17918 ft 376 kts 246°
2026-04-21 03:26 -37.19476 174.64930 18413 ft 378 kts 246°
2026-04-21 03:26 -37.20533 174.61870 18983 ft 377 kts 246°
2026-04-21 03:27 -37.21580 174.58829 19384 ft 383 kts 246°
2026-04-21 03:27 -37.22638 174.55750 19845 ft 385 kts 246°
2026-04-21 03:27 -37.23697 174.52663 20291 ft 388 kts 246°
2026-04-21 03:27 -37.24768 174.49537 20739 ft 391 kts 246°
2026-04-21 03:28 -37.25844 174.46394 21215 ft 393 kts 246°
2026-04-21 03:28 -37.26929 174.43220 21614 ft 397 kts 246°
2026-04-21 03:28 -37.28004 174.40068 22089 ft 399 kts 246°
2026-04-21 03:28 -37.29046 174.36819 22487 ft 403 kts 248°
2026-04-21 03:29 -37.30036 174.33529 22963 ft 405 kts 249°
2026-04-21 03:29 -37.31020 174.30186 23349 ft 408 kts 249°
2026-04-21 03:29 -37.32004 174.26839 23757 ft 409 kts 249°
2026-04-21 03:29 -37.33000 174.23478 24117 ft 412 kts 248°
2026-04-21 03:30 -37.34007 174.20104 24539 ft 413 kts 248°
2026-04-21 03:30 -37.35027 174.16710 24851 ft 417 kts 248°
2026-04-21 03:30 -37.36057 174.13295 25258 ft 418 kts 248°
2026-04-21 03:30 -37.37095 174.09858 25582 ft 422 kts 248°
2026-04-21 03:31 -37.38137 174.06403 26041 ft 425 kts 248°
2026-04-21 03:31 -37.39188 174.02913 26595 ft 428 kts 248°
2026-04-21 03:31 -37.40245 173.99399 27205 ft 431 kts 248°
2026-04-21 03:31 -37.41310 173.95856 27724 ft 435 kts 248°
2026-04-21 03:32 -37.42382 173.92280 28278 ft 438 kts 248°
2026-04-21 03:32 -37.43462 173.88673 28635 ft 446 kts 248°
2026-04-21 03:32 -37.44568 173.84973 28831 ft 456 kts 248°
2026-04-21 03:32 -37.45702 173.81181 28862 ft 471 kts 248°
2026-04-21 03:33 -37.46868 173.77271 28947 ft 482 kts 248°
2026-04-21 03:33 -37.48041 173.73329 29349 ft 487 kts 248°
2026-04-21 03:33 -37.49236 173.69303 29779 ft 491 kts 248°
2026-04-21 03:33 -37.50437 173.65246 30150 ft 494 kts 249°
2026-04-21 03:34 -37.51641 173.61175 30520 ft 497 kts 249°
2026-04-21 03:34 -37.52849 173.57092 30902 ft 498 kts 249°
2026-04-21 03:34 -37.54045 173.53042 31274 ft 499 kts 249°
2026-04-21 03:34 -37.54860 173.50276 31535 ft 500 kts 249°
2026-04-21 03:35 -37.56480 173.44778 32060 ft 500 kts 249°
2026-04-21 03:35 -37.57280 173.42057 32314 ft 500 kts 249°
2026-04-21 03:35 -37.58875 173.36629 32851 ft 499 kts 249°
2026-04-21 03:35 -37.59689 173.33852 33125 ft 498 kts 250°
2026-04-21 03:36 -37.61276 173.28432 33683 ft 496 kts 250°
2026-04-21 03:36 -37.62079 173.25685 33937 ft 495 kts 250°
2026-04-21 03:36 -37.63269 173.21609 34277 ft 494 kts 250°
2026-04-21 03:36 -37.64453 173.17550 34623 ft 493 kts 250°
2026-04-21 03:37 -37.65634 173.13493 34976 ft 491 kts 250°
2026-04-21 03:37 -37.66807 173.09458 35327 ft 489 kts 251°
2026-04-21 03:37 -37.67978 173.05424 35696 ft 488 kts 251°
2026-04-21 03:37 -37.69125 173.01466 36048 ft 486 kts 251°
2026-04-21 03:38 -37.70284 172.97463 36426 ft 484 kts 251°
2026-04-21 03:38 -37.71435 172.93483 36813 ft 482 kts 251°
2026-04-21 03:38 -37.72582 172.89514 37192 ft 479 kts 251°
2026-04-21 03:38 -37.73718 172.85572 37580 ft 476 kts 252°
2026-04-21 03:39 -37.74849 172.81640 37816 ft 478 kts 251°
2026-04-21 03:39 -37.75986 172.77672 37840 ft 483 kts 251°
2026-04-21 03:39 -37.78291 172.69616 37848 ft 492 kts 252°
2026-04-21 03:40 -37.80637 172.61402 37848 ft 498 kts 252°
2026-04-21 03:40 -37.82990 172.53143 37845 ft 499 kts 252°
2026-04-21 03:41 -37.85333 172.44902 37843 ft 498 kts 251°
2026-04-21 03:41 -37.87647 172.36730 37857 ft 498 kts 251°
2026-04-21 03:42 -37.90002 172.28394 37860 ft 498 kts 251°
2026-04-21 03:42 -37.92306 172.20202 37865 ft 498 kts 252°
2026-04-21 03:43 -37.94625 172.11925 37871 ft 499 kts 251°
2026-04-21 03:43 -37.96957 172.03591 37877 ft 499 kts 251°
2026-04-21 03:44 -37.99261 171.95327 37883 ft 499 kts 251°
2026-04-21 03:44 -38.01566 171.87035 37891 ft 499 kts 251°
2026-04-21 03:45 -38.03861 171.78749 37895 ft 500 kts 251°
2026-04-21 03:45 -38.06161 171.70424 37896 ft 500 kts 251°
2026-04-21 03:46 -38.08458 171.62080 37906 ft 500 kts 251°
2026-04-21 03:46 -38.10745 171.53741 37905 ft 500 kts 251°
2026-04-21 03:47 -38.13025 171.45403 37908 ft 500 kts 251°
2026-04-21 03:47 -38.15299 171.37061 37908 ft 500 kts 251°
2026-04-21 03:48 -38.17568 171.28713 37917 ft 500 kts 251°
2026-04-21 03:48 -38.19837 171.20332 37922 ft 501 kts 251°
2026-04-21 03:49 -38.22096 171.11965 37923 ft 500 kts 251°
2026-04-21 03:49 -38.24346 171.03607 37922 ft 501 kts 251°
2026-04-21 03:50 -38.26480 170.95194 37922 ft 500 kts 257°
2026-04-21 03:50 -38.27180 170.86470 37927 ft 500 kts 268°
2026-04-21 03:51 -38.27213 170.77518 37928 ft 502 kts 270°
2026-04-21 03:51 -38.27153 170.68618 37934 ft 502 kts 270°
2026-04-21 03:52 -38.27103 170.59816 37937 ft 502 kts 270°
2026-04-21 03:52 -38.27064 170.50852 37935 ft 502 kts 269°
2026-04-21 03:53 -38.27025 170.42034 37939 ft 502 kts 269°
2026-04-21 03:53 -38.26980 170.33143 37938 ft 502 kts 269°
2026-04-21 03:54 -38.26928 170.24257 37945 ft 503 kts 269°
2026-04-21 03:54 -38.26867 170.15363 37942 ft 502 kts 269°
2026-04-21 03:55 -38.26799 170.06468 37947 ft 503 kts 269°
2026-04-21 03:55 -38.26724 169.97588 37950 ft 503 kts 268°
2026-04-21 03:56 -38.26645 169.88667 37950 ft 503 kts 269°
2026-04-21 03:56 -38.26559 169.79778 37950 ft 503 kts 269°
2026-04-21 03:57 -38.26467 169.70858 37956 ft 505 kts 268°
2026-04-21 03:57 -38.26366 169.61908 37957 ft 505 kts 269°
2026-04-21 03:58 -38.26257 169.52976 37960 ft 505 kts 268°
2026-04-21 03:58 -38.26143 169.44038 37955 ft 505 kts 269°
2026-04-21 03:59 -38.26023 169.35103 37956 ft 506 kts 268°
2026-04-21 04:00 -38.25827 169.21676 37967 ft 506 kts 269°
2026-04-21 04:00 -38.25688 169.12708 37969 ft 506 kts 269°
2026-04-21 04:01 -38.25544 169.03762 37967 ft 506 kts 269°
2026-04-21 04:01 -38.25392 168.94818 37971 ft 506 kts 269°
2026-04-21 04:02 -38.25233 168.85903 37963 ft 506 kts 269°
2026-04-21 04:02 -38.25066 168.76888 37972 ft 506 kts 270°
2026-04-21 04:03 -38.24895 168.67986 37954 ft 506 kts 270°
2026-04-21 04:03 -38.24718 168.59034 37969 ft 506 kts 270°
2026-04-21 04:04 -38.24531 168.50013 37977 ft 506 kts 270°
2026-04-21 04:04 -38.24338 168.41073 37977 ft 506 kts 270°
2026-04-21 04:05 -38.24140 168.32151 37962 ft 506 kts 270°
2026-04-21 04:05 -38.23933 168.23207 37978 ft 507 kts 270°
2026-04-21 04:06 -38.23719 168.14258 37978 ft 507 kts 270°
2026-04-21 04:06 -38.23498 168.05284 37977 ft 507 kts 270°
2026-04-21 04:07 -38.23271 167.96311 37976 ft 507 kts 270°
2026-04-21 04:07 -38.23037 167.87362 37973 ft 507 kts 270°
2026-04-21 04:08 -38.22796 167.78402 37974 ft 507 kts 270°
2026-04-21 04:08 -38.22548 167.69429 37974 ft 507 kts 270°
2026-04-21 04:09 -38.22295 167.60493 37972 ft 507 kts 270°
2026-04-21 04:09 -38.22033 167.51522 37976 ft 507 kts 270°
2026-04-21 04:10 -38.21764 167.42540 37976 ft 508 kts 270°
2026-04-21 04:10 -38.21489 167.33555 37980 ft 509 kts 270°
2026-04-21 04:11 -38.21206 167.24559 37976 ft 509 kts 270°
2026-04-21 04:11 -38.20916 167.15554 37980 ft 509 kts 270°
2026-04-21 04:12 -38.20620 167.06558 37976 ft 509 kts 270°
2026-04-21 04:12 -38.20318 166.97584 37977 ft 509 kts 270°
2026-04-21 04:13 -38.20007 166.88576 37971 ft 509 kts 270°
2026-04-21 04:13 -38.19690 166.79607 37982 ft 509 kts 270°
2026-04-21 04:14 -38.19368 166.70669 37982 ft 509 kts 270°
2026-04-21 04:14 -38.19037 166.61675 37981 ft 509 kts 270°
2026-04-21 04:15 -38.18700 166.52703 37981 ft 509 kts 270°
2026-04-21 04:15 -38.18357 166.43753 37985 ft 509 kts 270°
2026-04-21 04:16 -38.18005 166.34749 37987 ft 510 kts 270°
2026-04-21 04:16 -38.17647 166.25760 37988 ft 510 kts 270°
2026-04-21 04:17 -38.17280 166.16732 37985 ft 510 kts 270°
2026-04-21 04:17 -38.16907 166.07745 37981 ft 510 kts 270°
2026-04-21 04:18 -38.16528 165.98748 37987 ft 510 kts 270°
2026-04-21 04:18 -38.16142 165.89749 37991 ft 510 kts 270°
2026-04-21 04:19 -38.15750 165.80774 37987 ft 510 kts 270°
2026-04-21 04:19 -38.15349 165.71763 37986 ft 510 kts 270°
2026-04-21 04:20 -38.14942 165.62772 37991 ft 510 kts 270°
2026-04-21 04:20 -38.14532 165.53834 37987 ft 511 kts 270°
2026-04-21 04:21 -38.14108 165.44768 38000 ft 511 kts 270°
2026-04-21 04:21 -38.13753 165.37289 37994 ft 511 kts 270°
2026-04-21 04:22 -38.13247 165.26815 37997 ft 511 kts 271°
2026-04-21 04:22 -38.12878 165.19277 38003 ft 511 kts 271°
2026-04-21 04:23 -38.12431 165.10290 37993 ft 511 kts 271°
2026-04-21 04:23 -38.11975 165.01275 37998 ft 511 kts 270°
2026-04-21 04:24 -38.11515 164.92283 37998 ft 512 kts 270°
2026-04-21 04:24 -38.11045 164.83248 37999 ft 512 kts 271°
2026-04-21 04:25 -38.10570 164.74248 38001 ft 512 kts 271°
2026-04-21 04:25 -38.10088 164.65267 38002 ft 512 kts 270°
2026-04-21 04:26 -38.09595 164.56194 38002 ft 512 kts 270°
2026-04-21 04:26 -38.09099 164.47196 38004 ft 512 kts 270°
2026-04-21 04:27 -38.08597 164.38209 38004 ft 512 kts 270°
2026-04-21 04:27 -38.08087 164.29214 38005 ft 511 kts 270°
2026-04-21 04:28 -38.07570 164.20219 38010 ft 510 kts 270°
2026-04-21 04:28 -38.07048 164.11241 38015 ft 510 kts 270°
2026-04-21 04:29 -38.06520 164.02275 38013 ft 510 kts 270°
2026-04-21 04:29 -38.05983 163.93300 38018 ft 509 kts 270°
2026-04-21 04:30 -38.05442 163.84352 38015 ft 509 kts 270°
2026-04-21 04:30 -38.04894 163.75397 38020 ft 509 kts 270°
2026-04-21 04:31 -38.04340 163.66460 38023 ft 509 kts 270°
2026-04-21 04:31 -38.03779 163.57538 38020 ft 507 kts 270°
2026-04-21 04:32 -38.03212 163.48616 38026 ft 507 kts 270°
2026-04-21 04:32 -38.02638 163.39694 38026 ft 507 kts 270°
2026-04-21 04:33 -38.02058 163.30781 38031 ft 507 kts 271°
2026-04-21 04:33 -38.01471 163.21868 38034 ft 507 kts 271°
2026-04-21 04:34 -38.00879 163.12975 38034 ft 506 kts 271°
2026-04-21 04:34 -38.00283 163.04136 38039 ft 507 kts 271°
2026-04-21 04:35 -37.98842 162.95287 38037 ft 513 kts 282°
2026-04-21 04:35 -37.96773 162.86609 38043 ft 514 kts 284°
2026-04-21 04:36 -37.94616 162.77982 38045 ft 514 kts 284°
2026-04-21 04:36 -37.92457 162.69349 38045 ft 514 kts 284°
2026-04-21 04:37 -37.90310 162.60721 38048 ft 514 kts 284°
2026-04-21 04:37 -37.88176 162.52154 38052 ft 513 kts 284°
2026-04-21 04:38 -37.86023 162.43537 38052 ft 513 kts 284°
2026-04-21 04:38 -37.83866 162.34937 38058 ft 513 kts 284°
2026-04-21 04:39 -37.81706 162.26356 38058 ft 513 kts 284°
2026-04-21 04:39 -37.79528 162.17732 38072 ft 512 kts 284°
2026-04-21 04:40 -37.77359 162.09173 38080 ft 512 kts 284°
2026-04-21 04:40 -37.75180 162.00603 38058 ft 512 kts 284°
2026-04-21 04:41 -37.72990 161.92021 38066 ft 512 kts 284°
2026-04-21 04:41 -37.70796 161.83452 38072 ft 512 kts 284°
2026-04-21 04:42 -37.68598 161.74897 38072 ft 512 kts 284°
2026-04-21 04:42 -37.66394 161.66351 38080 ft 512 kts 284°
2026-04-21 04:43 -37.64184 161.57808 38078 ft 512 kts 284°
2026-04-21 04:43 -37.61964 161.49259 38087 ft 512 kts 284°
2026-04-21 04:44 -37.59745 161.40739 38095 ft 512 kts 284°
2026-04-21 04:44 -37.57518 161.32216 38086 ft 512 kts 284°
2026-04-21 04:45 -37.55286 161.23702 38098 ft 512 kts 284°
2026-04-21 04:45 -37.53050 161.15207 38092 ft 511 kts 284°
2026-04-21 04:46 -37.50802 161.06689 38102 ft 511 kts 284°
2026-04-21 04:46 -37.48556 160.98204 38105 ft 511 kts 284°
2026-04-21 04:47 -37.46302 160.89720 38108 ft 511 kts 284°
2026-04-21 04:47 -37.44039 160.81235 38109 ft 510 kts 284°
2026-04-21 04:48 -37.41775 160.72768 38117 ft 510 kts 284°
2026-04-21 04:48 -37.39508 160.64319 38116 ft 510 kts 284°
2026-04-21 04:49 -37.37237 160.55881 38125 ft 510 kts 284°
2026-04-21 04:49 -37.34962 160.47458 38122 ft 509 kts 284°
2026-04-21 04:50 -37.32680 160.39039 38130 ft 508 kts 285°
2026-04-21 04:50 -37.30401 160.30651 38135 ft 508 kts 285°
2026-04-21 04:51 -37.28125 160.22305 38132 ft 508 kts 285°
2026-04-21 04:51 -37.25816 160.13864 38151 ft 507 kts 285°
2026-04-21 04:52 -37.23520 160.05501 38151 ft 507 kts 285°
2026-04-21 04:52 -37.21222 159.97153 38150 ft 507 kts 285°
2026-04-21 04:53 -37.18916 159.88801 38155 ft 507 kts 285°
2026-04-21 04:53 -37.16603 159.80455 38144 ft 505 kts 285°
2026-04-21 04:54 -37.14295 159.72149 38150 ft 505 kts 285°
2026-04-21 04:54 -37.11978 159.63839 38157 ft 505 kts 285°
2026-04-21 04:55 -37.09657 159.55537 38153 ft 505 kts 285°
2026-04-21 04:55 -37.07336 159.47266 38155 ft 504 kts 285°
2026-04-21 04:56 -37.05018 159.39029 38163 ft 504 kts 285°
2026-04-21 04:56 -37.02666 159.30693 38165 ft 504 kts 285°
2026-04-21 04:57 -37.00340 159.22478 38170 ft 504 kts 285°
2026-04-21 04:57 -36.97994 159.14218 38167 ft 504 kts 284°
2026-04-21 04:58 -36.95650 159.05993 38171 ft 503 kts 284°
2026-04-21 04:58 -36.93297 158.97756 38176 ft 503 kts 285°
2026-04-21 04:59 -36.90939 158.89525 38176 ft 503 kts 285°
2026-04-21 04:59 -36.88575 158.81305 38183 ft 503 kts 284°
2026-04-21 05:00 -36.86213 158.73112 38183 ft 502 kts 284°
2026-04-21 05:00 -36.82648 158.60793 38187 ft 502 kts 284°
2026-04-21 05:01 -36.80279 158.52636 38189 ft 502 kts 285°
2026-04-21 05:01 -36.77881 158.44406 38195 ft 503 kts 285°
2026-04-21 05:02 -36.75483 158.36203 38195 ft 503 kts 285°
2026-04-21 05:02 -36.73086 158.28022 38195 ft 503 kts 285°
2026-04-21 05:03 -36.70678 158.19833 38173 ft 503 kts 285°
2026-04-21 05:03 -36.68272 158.11675 38198 ft 502 kts 285°
2026-04-21 05:04 -36.65860 158.03517 38200 ft 502 kts 285°
2026-04-21 05:04 -36.63438 157.95350 38201 ft 502 kts 285°
2026-04-21 05:05 -36.61029 157.87250 38206 ft 502 kts 285°
2026-04-21 05:05 -36.58992 157.80422 38207 ft 502 kts 285°
2026-04-21 05:06 -36.56166 157.70972 38208 ft 501 kts 285°
2026-04-21 05:06 -36.54127 157.64176 38208 ft 501 kts 285°
2026-04-21 05:07 -36.51681 157.56042 38205 ft 501 kts 285°
2026-04-21 05:07 -36.49238 157.47943 38216 ft 501 kts 285°
2026-04-21 05:08 -36.46786 157.39840 38220 ft 501 kts 285°
2026-04-21 05:08 -36.44343 157.31785 38218 ft 501 kts 285°
2026-04-21 05:09 -36.41889 157.23718 38223 ft 501 kts 285°
2026-04-21 05:09 -36.39420 157.15626 38217 ft 500 kts 285°
2026-04-21 05:10 -36.36937 157.07513 38222 ft 500 kts 284°
2026-04-21 05:10 -36.34476 156.99492 38224 ft 500 kts 285°
2026-04-21 05:11 -36.32002 156.91450 38224 ft 500 kts 285°
2026-04-21 05:11 -36.29514 156.83387 38230 ft 499 kts 284°
2026-04-21 05:12 -36.27030 156.75361 38233 ft 499 kts 285°
2026-04-21 05:12 -36.24546 156.67354 38233 ft 499 kts 285°
2026-04-21 05:13 -36.22048 156.59326 38238 ft 499 kts 285°
2026-04-21 05:13 -36.19549 156.51317 38237 ft 498 kts 285°
2026-04-21 05:14 -36.17046 156.43319 38233 ft 498 kts 285°
2026-04-21 05:14 -36.14548 156.35357 38235 ft 498 kts 285°
2026-04-21 05:15 -36.12030 156.27350 38238 ft 498 kts 285°
2026-04-21 05:15 -36.09515 156.19382 38251 ft 497 kts 285°
2026-04-21 05:16 -36.06995 156.11417 38247 ft 497 kts 285°
2026-04-21 05:16 -36.04489 156.03515 38250 ft 497 kts 285°
2026-04-21 05:17 -36.01947 155.95521 38252 ft 497 kts 285°
2026-04-21 05:17 -35.99434 155.87644 38249 ft 497 kts 285°
2026-04-21 05:18 -35.96896 155.79707 38252 ft 496 kts 285°
2026-04-21 05:18 -35.94358 155.71791 38257 ft 496 kts 285°
2026-04-21 05:19 -35.91809 155.63863 38257 ft 496 kts 285°
2026-04-21 05:19 -35.89262 155.55963 38262 ft 496 kts 285°
2026-04-21 05:20 -35.86707 155.48058 38264 ft 496 kts 285°
2026-04-21 05:20 -35.84153 155.40179 38260 ft 496 kts 285°
2026-04-21 05:21 -35.81585 155.32277 38267 ft 496 kts 285°
2026-04-21 05:21 -35.79013 155.24382 38265 ft 496 kts 285°
2026-04-21 05:22 -35.76440 155.16506 38265 ft 496 kts 285°
2026-04-21 05:22 -35.73858 155.08624 38265 ft 496 kts 285°
2026-04-21 05:23 -35.71272 155.00750 38265 ft 496 kts 285°
2026-04-21 05:23 -35.68682 154.92884 38271 ft 496 kts 285°
2026-04-21 05:24 -35.66086 154.85022 38270 ft 496 kts 285°
2026-04-21 05:24 -35.63492 154.77186 38270 ft 496 kts 285°
2026-04-21 05:25 -35.60691 154.69411 38275 ft 504 kts 295°
2026-04-21 05:25 -35.56394 154.62496 38267 ft 512 kts 304°
2026-04-21 05:26 -35.51731 154.55840 38272 ft 514 kts 305°
2026-04-21 05:26 -35.47035 154.49232 38272 ft 514 kts 305°
2026-04-21 05:27 -35.42360 154.42608 38279 ft 513 kts 304°
2026-04-21 05:27 -35.37703 154.35983 38277 ft 513 kts 304°
2026-04-21 05:28 -35.33049 154.29366 38279 ft 513 kts 305°
2026-04-21 05:28 -35.28387 154.22753 38277 ft 512 kts 305°
2026-04-21 05:29 -35.23725 154.16154 38277 ft 512 kts 305°
2026-04-21 05:29 -35.19055 154.09558 38280 ft 512 kts 305°
2026-04-21 05:30 -35.14392 154.02982 38268 ft 512 kts 305°
2026-04-21 05:30 -35.09720 153.96408 38282 ft 511 kts 305°
2026-04-21 05:31 -35.05054 153.89854 38275 ft 511 kts 305°
2026-04-21 05:31 -35.02756 153.86632 38167 ft 510 kts 305°
2026-04-21 05:31 -35.00396 153.83327 37752 ft 510 kts 305°
2026-04-21 05:32 -34.98062 153.80058 37233 ft 512 kts 305°
2026-04-21 05:32 -34.95747 153.76817 36722 ft 514 kts 305°
2026-04-21 05:32 -34.93399 153.73535 36221 ft 515 kts 306°
2026-04-21 05:32 -34.91033 153.70228 36111 ft 517 kts 306°
2026-04-21 05:33 -34.86310 153.63647 35964 ft 517 kts 306°
2026-04-21 05:33 -34.83948 153.60365 35559 ft 511 kts 306°
2026-04-21 05:33 -34.81599 153.57103 34574 ft 514 kts 306°
2026-04-21 05:34 -34.79232 153.53810 33873 ft 520 kts 306°
2026-04-21 05:34 -34.76842 153.50486 33642 ft 524 kts 306°
2026-04-21 05:34 -34.72012 153.43790 33625 ft 526 kts 306°
2026-04-21 05:35 -34.69608 153.40467 33520 ft 521 kts 306°
2026-04-21 05:35 -34.67234 153.37192 33088 ft 515 kts 306°
2026-04-21 05:35 -34.64864 153.33924 32577 ft 513 kts 306°
2026-04-21 05:35 -34.62511 153.30677 32323 ft 514 kts 306°
2026-04-21 05:36 -34.57778 153.24147 32295 ft 515 kts 306°
2026-04-21 05:36 -34.53046 153.17636 32291 ft 515 kts 306°
2026-04-21 05:37 -34.48304 153.11124 31889 ft 514 kts 307°
2026-04-21 05:37 -34.45943 153.07886 31233 ft 514 kts 307°
2026-04-21 05:37 -34.43565 153.04628 30508 ft 516 kts 307°
2026-04-21 05:38 -34.41192 153.01379 29703 ft 515 kts 307°
2026-04-21 05:38 -34.38822 152.98140 28886 ft 512 kts 307°
2026-04-21 05:38 -34.36472 152.94932 28084 ft 508 kts 307°
2026-04-21 05:38 -34.34134 152.91745 27307 ft 504 kts 307°
2026-04-21 05:39 -34.31812 152.88580 26559 ft 501 kts 307°
2026-04-21 05:39 -34.29511 152.85446 25864 ft 497 kts 307°
2026-04-21 05:39 -34.27228 152.82340 25418 ft 487 kts 308°
2026-04-21 05:39 -34.24993 152.79305 25295 ft 484 kts 308°
2026-04-21 05:40 -34.22757 152.76264 25291 ft 484 kts 308°
2026-04-21 05:40 -34.20518 152.73222 25191 ft 484 kts 308°
2026-04-21 05:40 -34.18280 152.70184 24772 ft 483 kts 308°
2026-04-21 05:40 -34.16051 152.67161 24143 ft 481 kts 308°
2026-04-21 05:41 -34.13832 152.64156 23395 ft 478 kts 308°
2026-04-21 05:41 -34.11626 152.61171 22596 ft 475 kts 308°
2026-04-21 05:41 -34.09536 152.58127 21806 ft 467 kts 300°
2026-04-21 05:41 -34.08155 152.54666 21058 ft 454 kts 283°
2026-04-21 05:42 -34.07563 152.50975 20312 ft 444 kts 273°
2026-04-21 05:42 -34.07250 152.47297 19589 ft 440 kts 272°
2026-04-21 05:42 -34.06946 152.43641 18893 ft 436 kts 272°
2026-04-21 05:42 -34.06632 152.40035 18151 ft 432 kts 273°
2026-04-21 05:43 -34.06312 152.36502 17377 ft 428 kts 273°
2026-04-21 05:43 -34.05979 152.32906 16591 ft 423 kts 274°
2026-04-21 05:43 -34.05648 152.29398 15854 ft 419 kts 274°
2026-04-21 05:43 -34.05318 152.25918 15120 ft 415 kts 273°
2026-04-21 05:44 -34.04990 152.22479 14399 ft 410 kts 273°
2026-04-21 05:44 -34.04669 152.19123 13666 ft 406 kts 273°
2026-04-21 05:44 -34.04341 152.15722 12882 ft 401 kts 273°
2026-04-21 05:44 -34.04022 152.12396 12119 ft 397 kts 274°
2026-04-21 05:45 -34.03703 152.09112 11468 ft 391 kts 273°
2026-04-21 05:45 -34.03392 152.05916 11133 ft 376 kts 274°
2026-04-21 05:45 -34.03087 152.02851 10882 ft 360 kts 274°
2026-04-21 05:45 -34.02788 151.99924 10649 ft 345 kts 273°
2026-04-21 05:46 -34.02500 151.97118 10401 ft 332 kts 272°
2026-04-21 05:46 -34.02227 151.94402 10166 ft 319 kts 274°
2026-04-21 05:46 -34.01966 151.91791 9885 ft 308 kts 274°
2026-04-21 05:46 -34.01710 151.89285 9609 ft 292 kts 272°
2026-04-21 05:47 -34.01467 151.86905 9332 ft 284 kts 272°
2026-04-21 05:47 -34.01232 151.84569 8965 ft 281 kts 272°
2026-04-21 05:47 -34.00688 151.82298 8567 ft 285 kts 295°
2026-04-21 05:47 -33.99399 151.80488 8200 ft 288 kts 321°
2026-04-21 05:48 -33.97697 151.79281 7984 ft 288 kts 332°
2026-04-21 05:48 -33.95869 151.78210 7955 ft 289 kts 333°
2026-04-21 05:48 -33.94078 151.77185 7951 ft 289 kts 333°
2026-04-21 05:48 -33.92264 151.76148 7954 ft 288 kts 333°
2026-04-21 05:49 -33.90464 151.75125 7950 ft 288 kts 333°
2026-04-21 05:49 -33.88649 151.74090 7951 ft 288 kts 333°
2026-04-21 05:49 -33.86837 151.73062 7947 ft 289 kts 333°
2026-04-21 05:49 -33.85026 151.72030 7952 ft 288 kts 333°
2026-04-21 05:50 -33.83210 151.70998 7954 ft 288 kts 333°
2026-04-21 05:50 -33.81390 151.69960 7845 ft 288 kts 332°
2026-04-21 05:50 -33.79581 151.68928 7499 ft 288 kts 333°
2026-04-21 05:50 -33.77775 151.67901 7140 ft 286 kts 333°
2026-04-21 05:51 -33.75991 151.66880 6772 ft 283 kts 332°
2026-04-21 05:51 -33.74209 151.65865 6401 ft 282 kts 333°
2026-04-21 05:51 -33.72447 151.64852 6018 ft 280 kts 333°
2026-04-21 05:51 -33.70690 151.63842 5650 ft 279 kts 333°
2026-04-21 05:52 -33.69532 151.63174 5397 ft 278 kts 333°
2026-04-21 05:52 -33.67791 151.62175 5054 ft 277 kts 333°
2026-04-21 05:52 -33.65576 151.60637 4957 ft 274 kts 314°
2026-04-21 05:52 -33.64800 151.59471 4955 ft 268 kts 295°
2026-04-21 05:53 -33.64219 151.57392 4954 ft 261 kts 276°
2026-04-21 05:53 -33.63935 151.55243 4937 ft 261 kts 274°
2026-04-21 05:53 -33.63709 151.53085 4953 ft 260 kts 272°
2026-04-21 05:53 -33.63486 151.50936 4951 ft 259 kts 273°
2026-04-21 05:54 -33.63248 151.48794 4947 ft 260 kts 273°
2026-04-21 05:54 -33.63007 151.46638 4951 ft 260 kts 273°
2026-04-21 05:54 -33.62773 151.44484 4954 ft 261 kts 272°
2026-04-21 05:54 -33.62553 151.42334 4955 ft 261 kts 272°
2026-04-21 05:55 -33.62331 151.40175 4956 ft 260 kts 272°
2026-04-21 05:55 -33.62280 151.38032 4963 ft 255 kts 257°
2026-04-21 05:55 -33.62765 151.36014 4787 ft 250 kts 244°
2026-04-21 05:55 -33.63412 151.34089 4415 ft 248 kts 242°
2026-04-21 05:56 -33.64076 151.32182 4092 ft 248 kts 243°
2026-04-21 05:56 -33.64760 151.30279 3847 ft 248 kts 243°
2026-04-21 05:56 -33.65435 151.28395 3583 ft 242 kts 243°
2026-04-21 05:56 -33.66086 151.26550 3330 ft 236 kts 242°
2026-04-21 05:57 -33.66685 151.24787 3233 ft 224 kts 243°
2026-04-21 05:57 -33.67267 151.23087 3203 ft 214 kts 243°
2026-04-21 05:57 -33.67812 151.21486 3142 ft 199 kts 243°
2026-04-21 05:57 -33.68310 151.20000 3112 ft 187 kts 243°
2026-04-21 05:58 -33.68782 151.18555 3054 ft 186 kts 243°
2026-04-21 05:58 -33.69252 151.17104 2999 ft 185 kts 243°
2026-04-21 05:58 -33.69722 151.15673 2963 ft 185 kts 243°
2026-04-21 05:58 -33.70215 151.14249 2959 ft 183 kts 238°
2026-04-21 05:59 -33.70966 151.13067 2955 ft 177 kts 216°
2026-04-21 05:59 -33.72073 151.12539 2964 ft 170 kts 186°
2026-04-21 05:59 -33.73245 151.12450 2961 ft 167 kts 180°
2026-04-21 06:00 -33.75554 151.12649 2989 ft 167 kts 169°
2026-04-21 06:00 -33.76694 151.12938 2980 ft 168 kts 168°
2026-04-21 06:00 -33.77831 151.13240 2982 ft 166 kts 168°
2026-04-21 06:00 -33.78954 151.13529 2907 ft 167 kts 168°
2026-04-21 06:01 -33.80059 151.13814 2686 ft 158 kts 168°
2026-04-21 06:01 -33.81094 151.14083 2462 ft 147 kts 169°
2026-04-21 06:01 -33.82056 151.14332 2257 ft 137 kts 169°
2026-04-21 06:01 -33.82986 151.14572 2095 ft 136 kts 168°
2026-04-21 06:02 -33.83904 151.14811 1903 ft 132 kts 168°
2026-04-21 06:02 -33.84761 151.15035 1724 ft 121 kts 169°
2026-04-21 06:02 -33.85567 151.15244 1587 ft 119 kts 169°
2026-04-21 06:02 -33.86376 151.15452 1415 ft 116 kts 168°
2026-04-21 06:03 -33.87149 151.15655 1284 ft 114 kts 171°
2026-04-21 06:03 -33.87937 151.15859 1121 ft 116 kts 171°
2026-04-21 06:03 -33.88727 151.16063 956 ft 116 kts 168°
2026-04-21 06:03 -33.89498 151.16265 807 ft 113 kts 169°
2026-04-21 06:04 -33.90289 151.16469 662 ft 120 kts 168°
2026-04-21 06:04 -33.91116 151.16688 484 ft 123 kts 168°
2026-04-21 06:04 -33.91939 151.16903 284 ft 118 kts 168°
2026-04-21 06:04 -33.92728 151.17105 110 ft 115 kts 168°
2026-04-21 06:05 -33.93501 151.17303 33 ft 105 kts 167°
2026-04-21 06:05 -33.93972 151.17427 32 ft 39 kts 168°
2026-04-21 06:05 -33.94193 151.17485 35 ft 20 kts 168°
2026-04-21 06:05 -33.94327 151.17520 36 ft 20 kts 167°
2026-04-21 06:06 -33.94464 151.17557 36 ft 21 kts 167°
2026-04-21 06:06 -33.94603 151.17592 36 ft 20 kts 168°
2026-04-21 06:06 -33.94720 151.17598 35 ft 14 kts 216°
2026-04-21 06:06 -33.94743 151.17487 36 ft 15 kts 283°
2026-04-21 06:07 -33.94690 151.17416 36 ft 7 kts 335°
2026-04-21 06:07 -33.94644 151.17400 36 ft 0 kts 348°
2026-04-21 06:08 -33.94609 151.17391 36 ft 9 kts 348°
2026-04-21 06:09 -33.94511 151.17365 36 ft 19 kts 347°
2026-04-21 06:09 -33.94363 151.17326 36 ft 21 kts 347°
2026-04-21 06:09 -33.94212 151.17287 35 ft 25 kts 348°
2026-04-21 06:09 -33.94051 151.17245 35 ft 10 kts 348°
2026-04-21 06:10 -33.93992 151.17223 35 ft 10 kts 323°
2026-04-21 06:10 -33.93990 151.17136 35 ft 13 kts 255°
2026-04-21 06:10 -33.94021 151.17009 36 ft 18 kts 254°
2026-04-21 06:10 -33.94052 151.16884 36 ft 14 kts 253°
2026-04-21 06:11 -33.94019 151.16808 36 ft 12 kts 331°
2026-04-21 06:11 -33.93922 151.16771 36 ft 17 kts 344°
2026-04-21 06:11 -33.93884 151.16758 36 ft 3 kts 343°
2026-04-21 06:11 -33.93851 151.16763 36 ft 5 kts 33°
2026-04-21 06:12 -33.93835 151.16811 36 ft 7 kts 73°
2026-04-21 06:12 -33.93829 151.16834 36 ft 2 kts 73°
2026-04-21 06:12 -33.93828 151.16837 36 ft 0 kts 73°